Location: Bakhuizen
(52.8696°N, 5.4575°E)
Time: 08:35:18
(UTC+00:00)

Cosmos 1437 Rocket - Pass Details

Date: 11 May 2021
Orbit: 501 x 565 km, 81.2° (Epoch: 20 June)

Event Time Altitude Azimuth Distance (km) Brightness Sun altitude
Rises 19:59:16 0° 200° (SSW) 2,646 6.1 -5.2°
Reaches altitude 10° 20:01:24 10° 204° (SSW) 1,772 5.3 -5.5°
Maximum altitude 20:05:16 62° 286° (WNW) 612 3.4 -5.9°
Drops below altitude 10° 20:09:15 10° 8° (N) 1,826 6.0 -6.4°
Sets 20:11:28 0° 12° (NNE) 2,735 6.8 -6.6°
